owner,sensor,date,latitude,longitude,vertical_datum,direction_of_sea_water_velocity,sea_water_speed,upward_sea_water_velocity,qcFlag 
TABS,ioos:station:wmo:42051:1,2011-04-01T01:30:00Z,29.6350,-93.6417,2.0,17.67736861,5.499681809,-99999.0,'11133222,11111222,99999999' 
TABS,ioos:station:wmo:42051:1,2011-04-01T02:00:00Z,29.6350,-93.6417,2.0,248.4425502,0.870919055,-99999.0,'11133222,11111222,99999999' 
TABS,ioos:station:wmo:42051:1,2011-04-01T02:30:00Z,29.6350,-93.6417,2.0,68.2934625,4.48826247,-99999.0,'11133222,11111222,99999999' 
TABS,ioos:station:wmo:42051:1,2011-04-01T03:00:00Z,29.6350,-93.6417,2.0,17.24658034,3.811364585,-99999.0,'11133222,11111222,99999999' 
TABS,ioos:station:wmo:42051:1,2011-04-01T03:30:00Z,29.6350,-93.6417,2.0,50.50557021,3.537711124,-99999.0,'11133222,11111222,99999999' 
TABS,ioos:station:wmo:42051:1,2011-04-01T04:00:00Z,29.6350,-93.6417,2.0,82.92802727,2.680391762,-99999.0,'11133222,11111222,99999999' 
TABS,ioos:station:wmo:42051:1,2011-04-01T04:30:00Z,29.6350,-93.6417,2.0,70.98927804,5.034600282,-99999.0,'11133222,11111222,99999999' 
TABS,ioos:station:wmo:42051:1,2011-04-01T05:00:00Z,29.6350,-93.6417,2.0,79.52886272,6.162629309,-99999.0,'11133222,11111222,99999999' 
TABS,ioos:station:wmo:42051:1,2011-04-01T05:30:00Z,29.6350,-93.6417,2.0,97.45023165,3.9332048,-99999.0,'11133222,11111222,99999999' 
TABS,ioos:station:wmo:42051:1,2011-04-01T06:00:00Z,29.6350,-93.6417,2.0,75.66371016,6.94631557,-99999.0,'11133222,11111222,99999999' 
TABS,ioos:station:wmo:42051:1,2011-04-01T06:30:00Z,29.6350,-93.6417,2.0,92.64352965,8.889460051,-99999.0,'11133222,11111222,99999999' 
TABS,ioos:station:wmo:42051:1,2011-04-01T07:00:00Z,29.6350,-93.6417,2.0,104.9989194,7.650653567,-99999.0,'11133222,11111222,99999999' 
TABS,ioos:station:wmo:42051:1,2011-04-01T07:30:00Z,29.6350,-93.6417,2.0,77.85289492,9.932381386,-99999.0,'11133222,11111222,99999999' 
TABS,ioos:station:wmo:42051:1,2011-04-01T08:00:00Z,29.6350,-93.6417,2.0,97.54028384,9.754347749,-99999.0,'11133222,11111222,99999999' 
TABS,ioos:station:wmo:42051:1,2011-04-01T08:30:00Z,29.6350,-93.6417,2.0,91.92393649,11.61654854,-99999.0,'11111222,11111222,99999999' 
TABS,ioos:station:wmo:42051:1,2011-04-01T09:00:00Z,29.6350,-93.6417,2.0,100.4725617,14.35919566,-99999.0,'11111222,11111222,99999999' 
TABS,ioos:station:wmo:42051:1,2011-04-01T09:30:00Z,29.6350,-93.6417,2.0,103.4485836,10.40532556,-99999.0,'11111222,11111222,99999999' 
TABS,ioos:station:wmo:42051:1,2011-04-01T10:00:00Z,29.6350,-93.6417,2.0,99.27664189,14.20579107,-99999.0,'11111222,11111222,99999999' 
TABS,ioos:station:wmo:42051:1,2011-04-01T10:30:00Z,29.6350,-93.6417,2.0,107.5348936,12.28063923,-99999.0,'11111222,11111222,99999999' 
TABS,ioos:station:wmo:42051:1,2011-04-01T11:00:00Z,29.6350,-93.6417,2.0,106.1759318,18.77322029,-99999.0,'11111222,11111222,99999999' 
TABS,ioos:station:wmo:42051:1,2011-04-01T11:30:00Z,29.6350,-93.6417,2.0,101.4722888,26.295357,-99999.0,'11111222,11111222,99999999' 
TABS,ioos:station:wmo:42051:1,2011-04-01T12:00:00Z,29.6350,-93.6417,2.0,101.9800509,25.82241662,-99999.0,'11111222,11111222,99999999' 
TABS,ioos:station:wmo:42051:1,2011-04-01T12:30:00Z,29.6350,-93.6417,2.0,116.1152313,43.86853314,-99999.0,'11111222,11111222,99999999' 
TABS,ioos:station:wmo:42051:1,2011-04-01T13:00:00Z,29.6350,-93.6417,2.0,114.773964,35.7722029,-99999.0,'11111222,11111222,99999999' 
TABS,ioos:station:wmo:42051:1,2011-04-01T13:30:00Z,29.6350,-93.6417,2.0,109.463922,31.87141195,-99999.0,'11111222,11111222,99999999' 
TABS,ioos:station:wmo:42051:1,2011-04-01T14:00:00Z,29.6350,-93.6417,2.0,120.8705401,32.70310841,-99999.0,'11111222,11111222,99999999' 
TABS,ioos:station:wmo:42051:1,2011-04-01T14:30:00Z,29.6350,-93.6417,2.0,116.8871033,31.02369739,-99999.0,'11111222,11111222,99999999' 
TABS,ioos:station:wmo:42051:1,2011-04-01T15:00:00Z,29.6350,-93.6417,2.0,122.2546351,31.66667649,-99999.0,'11111222,11111222,99999999' 
TABS,ioos:station:wmo:42051:1,2011-04-02T06:30:00Z,29.6350,-93.6417,2.0,30.00086808,34.99922999,-99999.0,'11111222,11111222,99999999' 
TABS,ioos:station:wmo:42051:1,2011-04-02T07:00:00Z,29.6350,-93.6417,2.0,37.99926907,33.99660277,-99999.0,'11111222,11111222,99999999' 
TABS,ioos:station:wmo:42051:1,2011-04-02T07:30:00Z,29.6350,-93.6417,2.0,37.99049323,27.00116294,-99999.0,'11111222,11111222,99999999' 
TABS,ioos:station:wmo:42051:1,2011-04-02T08:00:00Z,29.6350,-93.6417,2.0,42.00010352,29.99414943,-99999.0,'11111222,11111222,99999999' 
TABS,ioos:station:wmo:42051:1,2011-04-03T04:30:00Z,29.6350,-93.6417,2.0,13.19688743,31.45054531,-99999.0,'11111222,11111222,99999999' 
TABS,ioos:station:wmo:42051:1,2011-04-03T05:00:00Z,29.6350,-93.6417,2.0,20.21841508,29.97709959,-99999.0,'11111222,11111222,99999999' 
TABS,ioos:station:wmo:42051:1,2011-04-03T05:30:00Z,29.6350,-93.6417,2.0,17.8957185,29.22390289,-99999.0,'11111222,11111222,99999999' 
TABS,ioos:station:wmo:42051:1,2011-04-03T06:00:00Z,29.6350,-93.6417,2.0,26.60873723,29.42666308,-99999.0,'11111222,11111222,99999999' 
TABS,ioos:station:wmo:42051:1,2011-04-03T06:30:00Z,29.6350,-93.6417,2.0,33.25419574,25.8775134,-99999.0,'11111222,11111222,99999999' 
TABS,ioos:station:wmo:42051:1,2011-04-03T07:00:00Z,29.6350,-93.6417,2.0,38.52069684,25.06440105,-99999.0,'11111222,11111222,99999999' 
TABS,ioos:station:wmo:42051:1,2011-04-03T07:30:00Z,29.6350,-93.6417,2.0,37.82186671,23.5972562,-99999.0,'11111222,11111222,99999999' 
TABS,ioos:station:wmo:42051:1,2011-04-03T08:00:00Z,29.6350,-93.6417,2.0,46.4806605,19.43071023,-99999.0,'11111222,11111222,99999999' 
TABS,ioos:station:wmo:42051:1,2011-04-03T08:30:00Z,29.6350,-93.6417,2.0,47.88947304,17.25412704,-99999.0,'11111222,11111222,99999999' 
TABS,ioos:station:wmo:42051:1,2011-04-03T09:00:00Z,29.6350,-93.6417,2.0,53.93261795,14.70944255,-99999.0,'11111222,11111222,99999999' 
TABS,ioos:station:wmo:42051:1,2011-04-03T09:30:00Z,29.6350,-93.6417,2.0,64.69737363,14.41272008,-99999.0,'11111222,11111222,99999999' 
TABS,ioos:station:wmo:42051:1,2011-04-03T10:00:00Z,29.6350,-93.6417,2.0,77.48324712,10.33565189,-99999.0,'11111222,11111222,99999999' 
TABS,ioos:station:wmo:42051:1,2011-04-03T10:30:00Z,29.6350,-93.6417,2.0,61.96534775,15.1700033,-99999.0,'11111222,11111222,99999999' 
TABS,ioos:station:wmo:42051:1,2011-04-03T11:00:00Z,29.6350,-93.6417,2.0,104.7254483,11.29085028,-99999.0,'11111222,11111222,99999999' 
TABS,ioos:station:wmo:42051:1,2011-04-03T11:30:00Z,29.6350,-93.6417,2.0,84.32595414,10.92352049,-99999.0,'11111222,11111222,99999999' 
TABS,ioos:station:wmo:42051:1,2011-04-03T12:00:00Z,29.6350,-93.6417,2.0,101.6489296,12.92624075,-99999.0,'11111222,11111222,99999999' 
TABS,ioos:station:wmo:42051:1,2011-04-03T12:30:00Z,29.6350,-93.6417,2.0,75.49394648,20.99944047,-99999.0,'11111222,11111222,99999999' 
TABS,ioos:station:wmo:42051:1,2011-04-03T13:00:00Z,29.6350,-93.6417,2.0,82.01566558,30.02102263,-99999.0,'11111222,11111222,99999999' 
TABS,ioos:station:wmo:42051:1,2011-04-03T13:30:00Z,29.6350,-93.6417,2.0,76.73640698,26.97969051,-99999.0,'11111222,11111222,99999999' 
TABS,ioos:station:wmo:42051:1,2011-04-03T14:00:00Z,29.6350,-93.6417,2.0,90.4708709,37.72127384,-99999.0,'11111222,11111222,99999999' 
TABS,ioos:station:wmo:42051:1,2011-04-03T14:30:00Z,29.6350,-93.6417,2.0,68.91460607,34.32846341,-99999.0,'11111222,11111222,99999999' 
TABS,ioos:station:wmo:42051:1,2011-04-03T15:00:00Z,29.6350,-93.6417,2.0,77.21869589,13.28928892,-99999.0,'11111222,11111222,99999999' 
TABS,ioos:station:wmo:42051:1,2011-04-03T15:30:00Z,29.6350,-93.6417,2.0,72.47788114,16.87289246,-99999.0,'11111222,11111222,99999999' 
TABS,ioos:station:wmo:42051:1,2011-04-03T16:00:00Z,29.6350,-93.6417,2.0,83.36272028,8.30566674,-99999.0,'11133222,11111222,99999999' 
TABS,ioos:station:wmo:42051:1,2011-04-03T16:30:00Z,29.6350,-93.6417,2.0,67.30747778,7.880006345,-99999.0,'11133222,11111222,99999999' 
TABS,ioos:station:wmo:42051:1,2011-04-03T17:00:00Z,29.6350,-93.6417,2.0,64.19552794,5.053958844,-99999.0,'11133222,11111222,99999999' 
TABS,ioos:station:wmo:42051:1,2011-04-03T17:30:00Z,29.6350,-93.6417,2.0,37.59205978,10.47483174,-99999.0,'11111222,11111222,99999999' 
TABS,ioos:station:wmo:42051:1,2011-04-03T18:00:00Z,29.6350,-93.6417,2.0,28.09007069,7.730588593,-99999.0,'11133222,11111222,99999999' 
TABS,ioos:station:wmo:42051:1,2011-04-03T18:30:00Z,29.6350,-93.6417,2.0,3.293642375,7.832936869,-99999.0,'11133222,11111222,99999999' 
TABS,ioos:station:wmo:42051:1,2011-04-03T19:00:00Z,29.6350,-93.6417,2.0,5.801437589,8.805095116,-99999.0,'11133222,11111222,99999999' 
TABS,ioos:station:wmo:42051:1,2011-04-03T19:30:00Z,29.6350,-93.6417,2.0,316.4117325,8.325172671,-99999.0,'11133222,11111222,99999999' 
TABS,ioos:station:wmo:42051:1,2011-04-03T20:00:00Z,29.6350,-93.6417,2.0,326.6152533,6.251559805,-99999.0,'11133222,11111222,99999999' 
TABS,ioos:station:wmo:42051:1,2011-04-04T00:30:00Z,29.6350,-93.6417,2.0,293.5632452,8.880433548,-99999.0,'11133222,11111222,99999999' 
TABS,ioos:station:wmo:42051:1,2011-04-04T01:00:00Z,29.6350,-93.6417,2.0,296.2080613,10.75569617,-99999.0,'11111222,11111222,99999999' 
TABS,ioos:station:wmo:42051:1,2011-04-04T01:30:00Z,29.6350,-93.6417,2.0,317.2082109,11.74669315,-99999.0,'11111222,11111222,99999999' 
TABS,ioos:station:wmo:42051:1,2011-04-04T02:00:00Z,29.6350,-93.6417,2.0,288.4172123,10.00228474,-99999.0,'11111222,11111222,99999999' 
TABS,ioos:station:wmo:42051:1,2011-04-04T02:30:00Z,29.6350,-93.6417,2.0,305.5488322,12.31527507,-99999.0,'11111222,11111222,99999999' 
TABS,ioos:station:wmo:42051:1,2011-04-04T03:00:00Z,29.6350,-93.6417,2.0,315.3774461,13.96566146,-99999.0,'11111222,11111222,99999999' 
TABS,ioos:station:wmo:42051:1,2011-04-04T03:30:00Z,29.6350,-93.6417,2.0,307.2367035,11.88224305,-99999.0,'11111222,11111222,99999999' 
TABS,ioos:station:wmo:42051:1,2011-04-04T04:00:00Z,29.6350,-93.6417,2.0,320.2613834,12.10717556,-99999.0,'11111222,11111222,99999999' 
TABS,ioos:station:wmo:42051:1,2011-04-04T04:30:00Z,29.6350,-93.6417,2.0,329.2111721,16.87896916,-99999.0,'11111222,11111222,99999999' 
TABS,ioos:station:wmo:42051:1,2011-04-04T05:00:00Z,29.6350,-93.6417,2.0,332.0954078,15.68359653,-99999.0,'11111222,11111222,99999999' 
TABS,ioos:station:wmo:42051:1,2011-04-04T05:30:00Z,29.6350,-93.6417,2.0,333.8396545,9.503525662,-99999.0,'11133222,11111222,99999999' 
TABS,ioos:station:wmo:42051:1,2011-04-04T06:00:00Z,29.6350,-93.6417,2.0,313.8126493,11.59904306,-99999.0,'11111222,11111222,99999999' 
TABS,ioos:station:wmo:42051:1,2011-04-04T06:30:00Z,29.6350,-93.6417,2.0,313.1343588,12.8124978,-99999.0,'11111222,11111222,99999999' 
TABS,ioos:station:wmo:42051:1,2011-04-04T07:00:00Z,29.6350,-93.6417,2.0,316.6198996,12.25905788,-99999.0,'11111222,11111222,99999999' 
TABS,ioos:station:wmo:42051:1,2011-04-04T07:30:00Z,29.6350,-93.6417,2.0,299.8056153,9.415481931,-99999.0,'11133222,11111222,99999999' 
TABS,ioos:station:wmo:42051:1,2011-04-04T08:00:00Z,29.6350,-93.6417,2.0,295.5781524,8.824834276,-99999.0,'11133222,11111222,99999999' 
TABS,ioos:station:wmo:42051:1,2011-04-04T08:30:00Z,29.6350,-93.6417,2.0,266.2586503,7.816655295,-99999.0,'11133222,11111222,99999999' 
TABS,ioos:station:wmo:42051:1,2011-04-04T09:00:00Z,29.6350,-93.6417,2.0,336.6900353,6.065055647,-99999.0,'11133222,11111222,99999999' 
TABS,ioos:station:wmo:42051:1,2011-04-04T09:30:00Z,29.6350,-93.6417,2.0,316.6020402,5.312447647,-99999.0,'11133222,11111222,99999999' 
TABS,ioos:station:wmo:42051:1,2011-04-04T10:00:00Z,29.6350,-93.6417,2.0,223.4085478,2.546566316,-99999.0,'11133222,11111222,99999999' 
TABS,ioos:station:wmo:42051:1,2011-04-04T10:30:00Z,29.6350,-93.6417,2.0,300.4802006,4.06123134,-99999.0,'11133222,11111222,99999999' 
TABS,ioos:station:wmo:42051:1,2011-04-04T11:00:00Z,29.6350,-93.6417,2.0,221.0335333,5.316032355,-99999.0,'11133222,11111222,99999999' 
TABS,ioos:station:wmo:42051:1,2011-04-04T11:30:00Z,29.6350,-93.6417,2.0,276.3020149,1.639908534,-99999.0,'11133222,11111222,99999999' 
TABS,ioos:station:wmo:42051:1,2011-04-04T12:00:00Z,29.6350,-93.6417,2.0,212.5156856,3.925328012,-99999.0,'11133222,11111222,99999999' 
TABS,ioos:station:wmo:42051:1,2011-04-04T12:30:00Z,29.6350,-93.6417,2.0,169.9695997,5.971264523,-99999.0,'11133222,11111222,99999999' 
TABS,ioos:station:wmo:42051:1,2011-04-04T13:00:00Z,29.6350,-93.6417,2.0,105.2412502,7.265548844,-99999.0,'11133222,11111222,99999999' 
TABS,ioos:station:wmo:42051:1,2011-04-04T13:30:00Z,29.6350,-93.6417,2.0,68.06077375,18.52130665,-99999.0,'11111222,11111222,99999999' 
TABS,ioos:station:wmo:42051:1,2011-04-04T14:00:00Z,29.6350,-93.6417,2.0,111.949701,15.06179936,-99999.0,'11111222,11111222,99999999' 
TABS,ioos:station:wmo:42051:1,2011-04-04T14:30:00Z,29.6350,-93.6417,2.0,125.1906155,6.14263787,-99999.0,'11133222,11111222,99999999' 
TABS,ioos:station:wmo:42051:1,2011-04-04T15:00:00Z,29.6350,-93.6417,2.0,140.1444748,8.831987319,-99999.0,'11133222,11111222,99999999' 
TABS,ioos:station:wmo:42051:1,2011-04-04T15:30:00Z,29.6350,-93.6417,2.0,134.0421001,11.42137032,-99999.0,'11111222,11111222,99999999' 
TABS,ioos:station:wmo:42051:1,2011-04-04T16:00:00Z,29.6350,-93.6417,2.0,149.9680349,10.64975587,-99999.0,'11111222,11111222,99999999' 
TABS,ioos:station:wmo:42051:1,2011-04-04T16:30:00Z,29.6350,-93.6417,2.0,160.7116075,14.86435333,-99999.0,'11111222,11111222,99999999' 
TABS,ioos:station:wmo:42051:1,2011-04-04T17:00:00Z,29.6350,-93.6417,2.0,146.1643264,37.14007135,-99999.0,'11111222,11111222,99999999' 
TABS,ioos:station:wmo:42051:1,2011-04-04T17:30:00Z,29.6350,-93.6417,2.0,160.2163897,27.94962612,-99999.0,'11111222,11111222,99999999' 
TABS,ioos:station:wmo:42051:1,2011-04-04T18:00:00Z,29.6350,-93.6417,2.0,162.3342845,19.31060848,-99999.0,'11111222,11111222,99999999' 
TABS,ioos:station:wmo:42051:1,2011-04-04T18:30:00Z,29.6350,-93.6417,2.0,165.2393748,20.72389925,-99999.0,'11111222,11111222,99999999' 
TABS,ioos:station:wmo:42051:1,2011-04-04T19:00:00Z,29.6350,-93.6417,2.0,184.0407281,22.84679846,-99999.0,'11111222,11111222,99999999' 
TABS,ioos:station:wmo:42051:1,2011-04-04T19:30:00Z,29.6350,-93.6417,2.0,178.1489586,22.91195321,-99999.0,'11111222,11111222,99999999' 
TABS,ioos:station:wmo:42051:1,2011-04-04T20:00:00Z,29.6350,-93.6417,2.0,199.5048086,21.50407636,-99999.0,'11111222,11111222,99999999' 
TABS,ioos:station:wmo:42051:1,2011-04-04T20:30:00Z,29.6350,-93.6417,2.0,186.3224977,32.5982837,-99999.0,'11111222,11111222,99999999' 
TABS,ioos:station:wmo:42051:1,2011-04-04T21:00:00Z,29.6350,-93.6417,2.0,189.4321734,31.48569834,-99999.0,'11111222,11111222,99999999' 
TABS,ioos:station:wmo:42051:1,2011-04-04T21:30:00Z,29.6350,-93.6417,2.0,189.3906041,21.08254254,-99999.0,'11111222,11111222,99999999' 
TABS,ioos:station:wmo:42051:1,2011-04-04T22:00:00Z,29.6350,-93.6417,2.0,171.0041676,22.00060226,-99999.0,'11111222,11111222,99999999' 
TABS,ioos:station:wmo:42051:1,2011-04-04T22:30:00Z,29.6350,-93.6417,2.0,171.0743408,25.26594546,-99999.0,'11111222,11111222,99999999' 
TABS,ioos:station:wmo:42051:1,2011-04-04T23:00:00Z,29.6350,-93.6417,2.0,185.830135,34.74975971,-99999.0,'11111222,11111222,99999999' 
TABS,ioos:station:wmo:42051:1,2011-04-04T23:30:00Z,29.6350,-93.6417,2.0,191.7875102,33.62920308,-99999.0,'11111222,11111222,99999999' 
TABS,ioos:station:wmo:42051:1,2011-04-05T00:00:00Z,29.6350,-93.6417,2.0,191.8065506,34.60207075,-99999.0,'11111222,11111222,99999999' 
TABS,ioos:station:wmo:42051:1,2011-04-05T03:00:00Z,29.6350,-93.6417,2.0,152.5814958,19.21889955,-99999.0,'11111222,11111222,99999999' 
TABS,ioos:station:wmo:42051:1,2011-04-05T03:30:00Z,29.6350,-93.6417,2.0,136.9639963,20.63135478,-99999.0,'11111222,11111222,99999999' 
TABS,ioos:station:wmo:42051:1,2011-04-05T04:00:00Z,29.6350,-93.6417,2.0,126.7950205,19.91801697,-99999.0,'11111222,11111222,99999999' 
TABS,ioos:station:wmo:42051:1,2011-04-05T04:30:00Z,29.6350,-93.6417,2.0,115.3136582,16.79240304,-99999.0,'11111222,11111222,99999999' 
TABS,ioos:station:wmo:42051:1,2011-04-05T05:00:00Z,29.6350,-93.6417,2.0,147.5439073,14.42277713,-99999.0,'11111222,11111222,99999999' 
TABS,ioos:station:wmo:42051:1,2011-04-05T05:30:00Z,29.6350,-93.6417,2.0,151.21739,7.975318175,-99999.0,'11133222,11111222,99999999' 
TABS,ioos:station:wmo:42051:1,2011-04-05T06:00:00Z,29.6350,-93.6417,2.0,203.4718706,6.050669384,-99999.0,'11133222,11111222,99999999' 
TABS,ioos:station:wmo:42051:1,2011-04-05T06:30:00Z,29.6350,-93.6417,2.0,211.0721481,8.137622503,-99999.0,'11133222,11111222,99999999' 
TABS,ioos:station:wmo:42051:1,2011-04-05T07:00:00Z,29.6350,-93.6417,2.0,214.165366,5.680325695,-99999.0,'11133222,11111222,99999999' 
TABS,ioos:station:wmo:42051:1,2011-04-05T07:30:00Z,29.6350,-93.6417,2.0,240.5405288,6.466011135,-99999.0,'11133222,11111222,99999999' 
TABS,ioos:station:wmo:42051:1,2011-04-05T08:00:00Z,29.6350,-93.6417,2.0,325.9325723,2.945522025,-99999.0,'11133222,11111222,99999999' 
TABS,ioos:station:wmo:42051:1,2011-04-05T08:30:00Z,29.6350,-93.6417,2.0,4.811733709,2.980503313,-99999.0,'11133222,11111222,99999999' 
TABS,ioos:station:wmo:42051:1,2011-04-05T09:00:00Z,29.6350,-93.6417,2.0,24.31249504,4.323424569,-99999.0,'11133222,11111222,99999999' 
TABS,ioos:station:wmo:42051:1,2011-04-05T09:30:00Z,29.6350,-93.6417,2.0,29.30654368,7.293455971,-99999.0,'11133222,11111222,99999999' 
TABS,ioos:station:wmo:42051:1,2011-04-05T10:00:00Z,29.6350,-93.6417,2.0,15.55824595,8.127810283,-99999.0,'11133222,11111222,99999999' 
TABS,ioos:station:wmo:42051:1,2011-04-05T10:30:00Z,29.6350,-93.6417,2.0,356.4947583,6.05132217,-99999.0,'11133222,11111222,99999999' 
TABS,ioos:station:wmo:42051:1,2011-04-05T11:00:00Z,29.6350,-93.6417,2.0,13.63687636,6.956090856,-99999.0,'11133222,11111222,99999999' 
TABS,ioos:station:wmo:42051:1,2011-04-05T11:30:00Z,29.6350,-93.6417,2.0,38.21395473,6.821876575,-99999.0,'11133222,11111222,99999999' 
TABS,ioos:station:wmo:42051:1,2011-04-05T12:00:00Z,29.6350,-93.6417,2.0,316.2305653,22.7245792,-99999.0,'11111222,11111222,99999999' 
TABS,ioos:station:wmo:42051:1,2011-04-05T12:30:00Z,29.6350,-93.6417,2.0,313.0814838,6.968909527,-99999.0,'11133222,11111222,99999999' 
TABS,ioos:station:wmo:42051:1,2011-04-05T13:00:00Z,29.6350,-93.6417,2.0,308.8451617,2.901723626,-99999.0,'11133222,11111222,99999999' 
TABS,ioos:station:wmo:42051:1,2011-04-05T13:30:00Z,29.6350,-93.6417,2.0,273.8144868,12.32730303,-99999.0,'11111222,11111222,99999999' 
TABS,ioos:station:wmo:42051:1,2011-04-05T14:00:00Z,29.6350,-93.6417,2.0,274.3298523,12.05439754,-99999.0,'11111222,11111222,99999999' 
TABS,ioos:station:wmo:42051:1,2011-04-05T14:30:00Z,29.6350,-93.6417,2.0,277.239393,8.729581891,-99999.0,'11133222,11111222,99999999' 
TABS,ioos:station:wmo:42051:1,2011-04-05T15:00:00Z,29.6350,-93.6417,2.0,292.6486769,13.94538633,-99999.0,'11111222,11111222,99999999' 
TABS,ioos:station:wmo:42051:1,2011-04-05T15:30:00Z,29.6350,-93.6417,2.0,269.5671673,7.950226412,-99999.0,'11133222,11111222,99999999' 
TABS,ioos:station:wmo:42051:1,2011-04-05T16:00:00Z,29.6350,-93.6417,2.0,286.2823689,6.313200456,-99999.0,'11133222,11111222,99999999' 
TABS,ioos:station:wmo:42051:1,2011-04-05T16:30:00Z,29.6350,-93.6417,2.0,314.294933,10.33868464,-99999.0,'11111222,11111222,99999999' 
TABS,ioos:station:wmo:42051:1,2011-04-05T17:00:00Z,29.6350,-93.6417,2.0,318.4790527,4.661351735,-99999.0,'11133222,11111222,99999999' 
TABS,ioos:station:wmo:42051:1,2011-04-05T17:30:00Z,29.6350,-93.6417,2.0,350.4314978,6.196208518,-99999.0,'11133222,11111222,99999999' 
TABS,ioos:station:wmo:42051:1,2011-04-05T18:00:00Z,29.6350,-93.6417,2.0,322.6617839,23.230777,-99999.0,'11111222,11111222,99999999' 
TABS,ioos:station:wmo:42051:1,2011-04-05T18:30:00Z,29.6350,-93.6417,2.0,297.6119342,16.16052289,-99999.0,'11111222,11111222,99999999' 
TABS,ioos:station:wmo:42051:1,2011-04-05T19:00:00Z,29.6350,-93.6417,2.0,291.0104254,20.97443205,-99999.0,'11111222,11111222,99999999' 
TABS,ioos:station:wmo:42051:1,2011-04-05T19:30:00Z,29.6350,-93.6417,2.0,295.8972695,18.40856322,-99999.0,'11111222,11111222,99999999' 
TABS,ioos:station:wmo:42051:1,2011-04-05T20:00:00Z,29.6350,-93.6417,2.0,310.8532061,14.0800071,-99999.0,'11111222,11111222,99999999' 
TABS,ioos:station:wmo:42051:1,2011-04-05T20:30:00Z,29.6350,-93.6417,2.0,309.3383921,20.71321559,-99999.0,'11111222,11111222,99999999' 
TABS,ioos:station:wmo:42051:1,2011-04-05T21:00:00Z,29.6350,-93.6417,2.0,285.2766879,14.23289851,-99999.0,'11111222,11111222,99999999' 
TABS,ioos:station:wmo:42051:1,2011-04-05T21:30:00Z,29.6350,-93.6417,2.0,282.9172762,22.09921266,-99999.0,'11111222,11111222,99999999' 
TABS,ioos:station:wmo:42051:1,2011-04-05T22:00:00Z,29.6350,-93.6417,2.0,275.4995136,12.93955177,-99999.0,'11111222,11111222,99999999' 
TABS,ioos:station:wmo:42051:1,2011-04-05T22:30:00Z,29.6350,-93.6417,2.0,272.3794516,10.35892852,-99999.0,'11111222,11111222,99999999' 
TABS,ioos:station:wmo:42051:1,2011-04-05T23:00:00Z,29.6350,-93.6417,2.0,278.8897836,12.16613332,-99999.0,'11111222,11111222,99999999' 
TABS,ioos:station:wmo:42051:1,2011-04-05T23:30:00Z,29.6350,-93.6417,2.0,263.0344986,15.99806238,-99999.0,'11111222,11111222,99999999' 
TABS,ioos:station:wmo:42051:1,2011-04-06T00:00:00Z,29.6350,-93.6417,2.0,308.6452374,6.004881348,-99999.0,'11133222,11111222,99999999' 
TABS,ioos:station:wmo:42051:1,2011-04-06T00:30:00Z,29.6350,-93.6417,2.0,0.091883413,12.500016,-99999.0,'11111222,11111222,99999999' 
TABS,ioos:station:wmo:42051:1,2011-04-06T01:00:00Z,29.6350,-93.6417,2.0,294.4663018,6.471050919,-99999.0,'11133222,11111222,99999999' 
TABS,ioos:station:wmo:42051:1,2011-04-06T01:30:00Z,29.6350,-93.6417,2.0,344.7113247,7.433068007,-99999.0,'11133222,11111222,99999999' 
TABS,ioos:station:wmo:42051:1,2011-04-06T02:00:00Z,29.6350,-93.6417,2.0,210.5128431,3.052769235,-99999.0,'11133222,11111222,99999999' 
TABS,ioos:station:wmo:42051:1,2011-04-06T02:30:00Z,29.6350,-93.6417,2.0,169.5083371,4.668040274,-99999.0,'11133222,11111222,99999999' 
TABS,ioos:station:wmo:42051:1,2011-04-06T03:00:00Z,29.6350,-93.6417,2.0,214.5883189,4.421504269,-99999.0,'11133222,11111222,99999999' 
TABS,ioos:station:wmo:42051:1,2011-04-06T03:30:00Z,29.6350,-93.6417,2.0,272.6565619,1.942086507,-99999.0,'11133222,11111222,99999999' 
TABS,ioos:station:wmo:42051:1,2011-04-06T04:00:00Z,29.6350,-93.6417,2.0,284.4383473,2.767399501,-99999.0,'11133222,11111222,99999999' 
TABS,ioos:station:wmo:42051:1,2011-04-06T04:30:00Z,29.6350,-93.6417,2.0,13.32471056,1.952562419,-99999.0,'11133222,11111222,99999999' 
TABS,ioos:station:wmo:42051:1,2011-04-06T05:00:00Z,29.6350,-93.6417,2.0,247.3477404,1.376154061,-99999.0,'11133222,11111222,99999999' 
TABS,ioos:station:wmo:42051:1,2011-04-06T05:30:00Z,29.6350,-93.6417,2.0,347.867498,7.374727114,-99999.0,'11133222,11111222,99999999' 
TABS,ioos:station:wmo:42051:1,2011-04-06T06:00:00Z,29.6350,-93.6417,2.0,294.8060287,7.865723107,-99999.0,'11133222,11111222,99999999' 
TABS,ioos:station:wmo:42051:1,2011-04-06T06:30:00Z,29.6350,-93.6417,2.0,317.1408042,9.276642712,-99999.0,'11133222,11111222,99999999' 
TABS,ioos:station:wmo:42051:1,2011-04-06T07:00:00Z,29.6350,-93.6417,2.0,344.6582995,9.259989201,-99999.0,'11133222,11111222,99999999' 
TABS,ioos:station:wmo:42051:1,2011-04-06T07:30:00Z,29.6350,-93.6417,2.0,343.655459,8.670409448,-99999.0,'11133222,11111222,99999999' 
TABS,ioos:station:wmo:42051:1,2011-04-06T08:00:00Z,29.6350,-93.6417,2.0,334.4573802,10.52908353,-99999.0,'11111222,11111222,99999999' 
TABS,ioos:station:wmo:42051:1,2011-04-06T08:30:00Z,29.6350,-93.6417,2.0,352.8061614,9.262920706,-99999.0,'11133222,11111222,99999999' 
TABS,ioos:station:wmo:42051:1,2011-04-06T09:00:00Z,29.6350,-93.6417,2.0,326.4086396,9.687853219,-99999.0,'11133222,11111222,99999999' 
TABS,ioos:station:wmo:42051:1,2011-04-06T09:30:00Z,29.6350,-93.6417,2.0,317.5363942,11.34603455,-99999.0,'11111222,11111222,99999999' 
TABS,ioos:station:wmo:42051:1,2011-04-06T10:00:00Z,29.6350,-93.6417,2.0,304.1222395,10.3038488,-99999.0,'11111222,11111222,99999999' 
TABS,ioos:station:wmo:42051:1,2011-04-06T10:30:00Z,29.6350,-93.6417,2.0,335.0302086,11.08624824,-99999.0,'11111222,11111222,99999999' 
TABS,ioos:station:wmo:42051:1,2011-04-06T11:00:00Z,29.6350,-93.6417,2.0,323.3048587,7.882036539,-99999.0,'11133222,11111222,99999999' 